Temperature
27 27 26 26 25 25 25 25 26 26 26 25 25 26 25 24 23 23 23 22 22 21 20 19 18 17 16 16 15 15 14 14 14 13 13 13 13 13 13 13 13 14 14 14
27 27 27 26 25 24 26 26 26 27 26 26 25 26 26 25 24 23 23 22 22 21 20 19 18 17 16 16 15 14 14 14 13 13 13 13 13 13 13 13 13 13 13 13
27 27 28 28 27 26 27 26 26 26 26 26 25 25 25 25 24 23 22 22 21 21 20 19 18 17 16 15 15 14 14 14 13 13 13 13 13 13 13 13 13 13 13 13
27 27 28 27 27 27 26 26 26 26 25 25 26 24 25 24 24 23 23 22 21 20 19 18 18 17 16 15 14 14 14 13 13 12 12 12 12 12 12 12 13 13 13 13
26 27 27 27 27 27 26 26 26 26 25 25 26 25 25 25 24 23 23 22 21 20 19 18 17 16 16 15 14 14 13 13 13 12 12 12 12 12 12 12 12 13 13 13
27 28 28 27 27 27 26 26 26 26 25 24 26 25 24 24 24 24 23 22 21 20 19 18 17 16 16 15 14 14 13 13 13 12 12 12 12 12 12 12 12 12 12 12
26 27 27 27 26 26 26 25 25 24 24 25 26 25 24 23 24 23 23 22 21 20 19 18 17 16 16 15 14 14 13 13 13 12 12 12 12 12 12 12 12 12 12 12
26 25 26 27 27 26 26 26 24 24 25 25 25 25 23 24 23 22 22 21 20 20 19 18 17 16 16 15 14 14 13 13 13 13 12 12 12 12 12 12 12 12 12 12
26 26 26 27 27 26 26 26 26 25 25 25 26 25 23 24 23 23 22 21 21 20 19 18 17 16 16 15 15 14 14 13 13 13 12 12 12 12 12 12 11 11 12 12
27 25 25 25 26 25 26 26 26 25 24 24 26 25 24 23 23 23 23 22 21 20 19 18 17 16 16 15 15 14 14 13 13 13 12 12 12 12 12 12 11 11 12 12
27 26 25 25 25 26 25 25 25 25 25 24 24 23 24 24 23 23 23 22 21 20 19 18 17 17 16 15 15 15 14 14 13 13 12 12 12 12 12 12 11 11 11 12
27 27 26 26 26 26 26 25 25 24 24 25 23 23 25 24 24 23 23 22 21 20 19 18 17 17 16 16 15 15 14 14 13 13 12 12 12 12 12 12 11 11 11 11
27 26 26 25 24 24 25 25 25 24 24 24 23 23 24 24 24 23 22 22 21 20 19 18 18 17 16 16 15 15 14 14 13 13 12 12 12 12 12 12 11 11 11 11
25 26 26 25 25 25 25 25 24 24 23 24 25 24 24 24 24 23 22 22 21 20 19 19 18 17 17 16 16 15 15 14 14 13 13 12 12 12 12 12 11 11 11 11
26 25 27 27 26 26 26 25 24 24 24 24 24 24 25 24 24 23 22 22 21 20 20 19 18 18 17 17 16 16 15 15 14 14 13 13 12 12 12 11 11 11 11 11
26 26 26 26 26 26 25 25 25 24 24 24 24 24 25 25 24 23 23 22 21 21 20 19 19 18 18 17 17 16 16 15 14 14 13 13 12 12 12 12 11 11 11 11
26 25 25 25 26 25 24 25 25 25 25 25 24 25 25 24 24 23 23 22 21 21 20 20 19 19 18 18 17 17 16 15 15 14 14 13 13 12 12 12 11 11 11 11
26 26 25 25 25 24 26 27 27 26 25 26 25 25 25 24 24 23 22 22 21 21 20 20 19 19 18 18 17 17 16 16 15 15 14 13 13 12 12 12 12 11 11 11
26 25 25 25 25 26 25 26 26 25 25 26 26 25 25 24 24 23 22 21 21 21 20 19 19 19 18 18 18 17 17 16 16 15 14 14 13 13 12 12 12 12 12 11
25 25 24 25 24 25 26 26 26 26 24 26 26 25 25 24 23 22 22 21 21 20 19 19 19 18 18 18 17 17 17 17 16 15 15 14 14 13 13 12 12 12 12 12
23 23 23 23 24 26 25 25 25 23 24 26 25 25 24 24 22 22 21 20 20 19 19 18 18 18 18 18 17 17 17 17 16 15 15 14 14 14 13 13 13 12 12 12
25 24 24 24 23 24 25 25 25 25 25 25 25 24 24 23 22 21 21 20 19 19 18 18 18 18 17 17 17 16 16 16 16 15 15 14 14 14 14 13 13 13 13 13
26 26 26 26 24 24 25 25 24 24 25 24 24 23 22 22 21 21 20 20 19 19 18 18 18 17 17 17 17 16 16 16 15 15 15 15 14 14 14 14 14 13 13 13
27 27 26 26 25 24 24 23 22 23 23 23 22 22 21 21 21 20 20 19 19 19 18 18 18 17 17 17 17 16 16 16 15 15 15 15 15 15 15 14 14 14 14 13
26 26 26 25 25 24 23 23 22 22 21 21 21 21 21 20 20 20 19 19 18 18 18 18 17 17 17 17 17 16 16 16 15 15 15 15 15 15 15 15 14 14 14 14
26 26 25 25 26 25 24 23 22 21 21 21 20 20 19 19 19 19 18 18 17 17 17 17 17 16 16 16 16 16 16 16 15 15 15 15 15 15 15 15 15 14 14 14
Wind_Speed
13 12 11 6 3 6 7 8 10 1 4 3 8 7 6 10 6 5 5 3 2 2 4 7 5 4 5 6 7 7 7 7 5 5 5 5 5 5 5 4 5 6 6 5
12 15 9 6 4 6 10 9 9 3 4 4 8 9 4 8 6 3 3 3 2 3 4 5 5 4 5 6 6 7 7 7 6 4 4 5 4 4 4 4 4 6 6 5
13 7 8 7 8 8 8 5 6 8 6 7 8 8 6 8 6 5 3 2 3 3 4 5 5 5 5 5 6 7 6 7 7 7 4 6 5 4 4 5 4 5 5 5
7 3 4 7 6 4 6 5 5 7 8 7 4 3 7 9 7 7 4 2 1 2 3 3 4 5 5 6 6 7 7 7 7 7 6 7 6 5 6 5 4 5 4 4
6 8 8 6 1 2 3 3 5 7 8 9 7 5 6 7 4 5 5 3 2 3 3 2 3 4 5 5 5 5 5 6 6 7 6 5 5 5 5 6 6 5 5 4
5 4 2 4 5 2 1 5 8 8 7 7 3 2 4 4 6 5 4 4 4 4 2 2 3 4 4 4 3 3 3 4 5 5 6 5 6 6 7 7 6 5 4 4
7 6 4 3 3 5 5 7 5 6 6 2 5 1 5 8 7 5 4 4 4 4 2 3 3 3 3 3 3 3 4 4 4 6 6 6 6 6 7 7 6 6 4 4
10 10 8 5 3 3 3 6 6 5 3 2 5 2 7 8 7 5 3 3 2 2 3 2 2 2 1 2 2 3 3 4 4 5 6 6 7 5 5 6 6 6 5 5
4 6 7 4 0 3 5 4 3 5 8 5 5 7 8 6 6 5 3 3 3 2 3 3 2 1 1 2 2 2 3 4 4 5 5 5 6 6 6 6 6 5 6 6
3 5 7 4 3 4 5 7 3 4 5 4 3 5 5 5 4 3 2 3 2 3 3 3 3 1 0 1 0 1 2 3 4 5 5 5 5 5 6 5 6 6 7 7
5 4 8 7 6 5 5 5 3 4 4 4 3 5 6 6 4 1 1 3 3 3 3 3 2 1 1 0 1 0 1 2 3 4 5 5 5 5 5 5 5 6 6 7
3 5 5 8 5 2 2 4 3 4 4 1 3 3 5 5 3 1 1 1 3 3 3 3 3 2 1 1 1 1 2 3 3 3 4 4 4 5 6 6 6 7 7 7
3 4 3 6 5 5 5 6 4 4 4 4 3 4 5 5 4 3 2 1 2 4 4 3 3 2 1 1 1 1 0 1 1 1 2 4 5 5 6 6 6 7 7 7
4 8 9 4 4 4 6 7 6 6 5 5 1 2 3 3 3 3 3 2 2 3 4 4 4 3 3 3 2 2 1 1 1 1 1 3 4 5 5 5 5 6 7 7
4 9 9 3 0 2 3 5 8 9 8 6 5 5 4 4 4 2 2 3 3 3 3 4 5 4 3 4 4 3 3 2 1 1 1 2 4 5 5 5 5 6 7 7
6 8 8 5 4 5 7 8 9 9 8 8 8 5 2 4 2 1 2 3 3 3 3 3 4 4 3 4 3 3 3 2 1 1 1 2 1 3 4 5 5 5 5 5
7 8 8 7 6 6 9 13 13 10 8 7 7 2 3 2 1 1 1 1 2 2 2 2 3 3 3 2 2 3 2 1 1 0 1 1 1 2 3 5 5 5 5 5
8 8 6 7 5 7 1 4 7 9 9 7 5 1 1 1 1 1 1 0 1 2 2 3 3 3 3 3 4 4 4 3 1 1 0 1 1 1 2 3 4 4 4 5
7 6 5 6 8 6 6 6 6 6 7 8 6 3 2 0 3 4 4 2 2 3 2 2 1 1 2 2 3 2 3 4 3 2 1 1 1 1 2 3 3 3 3 4
6 6 6 6 6 5 4 11 7 4 5 7 6 4 3 3 2 4 6 5 4 4 3 2 1 1 0 2 3 1 3 2 3 3 1 1 0 1 2 3 3 3 4 4
7 7 8 8 7 2 9 10 8 4 1 8 6 4 3 1 5 6 5 5 4 4 3 1 0 0 1 1 1 3 3 1 2 3 1 2 2 3 4 3 4 5 4 4
9 6 8 7 7 4 10 8 5 4 7 6 6 4 4 5 6 5 4 4 4 4 4 2 1 1 1 0 1 3 2 1 2 2 2 4 5 5 4 4 5 5 5 6
7 6 3 4 2 6 6 4 4 3 4 5 5 5 5 4 4 4 4 4 3 3 4 3 2 1 2 3 3 3 3 1 2 3 5 6 6 6 6 6 6 5 5 5
7 7 5 4 5 8 7 5 5 2 3 4 4 5 4 3 4 4 4 3 3 2 2 2 2 2 3 2 3 3 3 3 4 5 6 6 6 6 5 5 5 4 4 4
4 3 6 8 4 5 7 7 7 6 5 5 5 4 4 3 4 4 4 4 3 2 2 2 1 1 2 2 0 0 1 3 5 6 6 6 6 5 4 4 5 6 5 5
10 7 7 7 7 8 8 11 11 9 8 7 7 6 5 4 4 4 5 5 4 4 3 3 3 3 3 4 5 4 3 3 5 6 6 4 3 3 4 5 5 9 10 11
Wind_Direction
200 215 223 215 239 298 299 293 298 27 118 292 289 282 177 164 179 218 241 252 269 62 61 78 58 39 21 24 15 3 6 4 12 7 342 334 332 327 326 328 339 331 322 320
201 219 208 169 156 250 267 283 303 10 87 316 293 286 206 154 174 196 276 306 333 40 37 68 51 39 31 29 18 3 9 6 13 3 347 327 326 315 319 333 336 340 332 325
212 205 199 204 210 242 272 300 337 333 317 262 264 267 188 143 154 168 205 277 326 18 24 34 34 28 29 34 21 4 11 8 13 3 2 344 335 331 342 341 339 326 323 321
198 180 209 224 236 281 307 41 341 307 295 288 250 298 143 145 164 176 175 175 137 61 50 41 39 30 22 34 26 7 13 11 12 1 1 347 346 345 335 332 325 327 327 330
177 181 210 234 77 359 24 8 293 282 280 282 253 266 129 146 149 138 126 132 108 92 76 50 58 48 32 33 26 8 8 10 8 352 342 339 354 341 328 330 335 339 336 327
135 174 207 90 87 43 319 265 254 248 257 259 203 264 114 101 78 84 103 105 104 98 99 97 74 71 49 38 22 356 3 4 354 343 342 354 357 341 336 342 343 339 336 332
166 166 127 132 173 187 238 270 266 223 218 178 109 174 81 88 74 63 69 76 85 102 95 85 75 63 48 24 15 352 359 353 357 347 346 354 357 348 345 349 342 341 338 338
192 178 170 183 248 292 257 283 299 312 322 100 164 149 104 99 101 95 97 98 111 132 111 87 77 75 56 11 19 1 351 345 351 348 352 358 359 357 352 348 344 343 341 335
249 133 121 128 120 298 281 259 349 315 288 278 159 121 123 135 138 139 151 160 179 151 136 140 111 64 37 27 19 359 351 349 355 357 351 2 2 355 348 345 348 347 339 336
299 137 159 155 200 215 290 329 294 267 312 298 152 130 119 130 120 130 163 160 159 154 155 142 130 124 51 28 353 1 350 353 7 357 355 3 358 348 338 340 352 344 336 337
286 207 162 173 209 209 198 221 252 286 287 307 353 75 74 78 70 44 50 120 134 149 152 140 134 144 151 297 301 306 359 35 33 4 358 354 348 340 336 349 352 346 342 344
279 300 193 173 142 91 271 284 287 283 316 292 286 103 102 109 111 113 18 102 135 142 149 155 156 172 182 220 319 346 26 44 51 18 350 338 339 348 353 357 1 353 348 347
337 279 239 156 159 174 215 224 253 289 295 273 285 120 163 138 128 125 127 141 144 154 171 178 163 186 195 198 237 310 28 64 70 50 338 339 352 360 356 359 0 348 350 351
337 271 275 315 29 146 193 195 210 240 261 282 295 87 132 93 84 98 124 156 162 173 182 184 172 203 197 203 204 208 169 153 169 134 347 356 353 359 357 0 352 347 353 351
248 269 273 266 41 306 243 208 204 229 257 289 339 355 359 55 67 67 145 170 186 196 196 192 186 204 198 201 199 187 169 179 165 106 45 28 0 360 358 349 350 359 354 351
239 273 274 251 222 235 250 236 222 226 244 263 288 299 69 89 110 172 191 167 186 207 207 201 200 192 206 216 188 162 156 164 181 182 125 90 2 356 348 341 351 353 337 339
223 251 271 261 212 223 248 226 215 219 223 233 254 276 67 28 6 9 39 136 187 201 178 189 220 191 197 194 117 109 105 124 206 164 123 113 35 0 344 344 347 337 336 355
241 243 256 263 207 236 109 91 178 207 221 224 241 286 48 360 52 105 110 66 169 147 154 174 203 176 192 180 146 147 168 191 180 116 262 175 167 290 323 326 322 322 341 343
273 270 262 263 259 248 165 157 165 191 217 204 216 204 162 209 221 183 138 101 79 90 104 126 175 182 193 141 122 185 196 179 166 160 260 247 177 197 295 305 305 314 321 314
248 272 260 266 268 273 126 134 142 186 234 178 174 163 152 238 249 105 102 100 92 88 82 78 112 283 260 121 115 275 272 211 161 158 217 275 171 216 267 289 300 298 289 286
197 224 236 260 266 264 113 125 141 202 149 134 141 145 163 91 74 92 94 101 104 107 105 92 269 329 5 46 126 249 279 341 101 108 64 300 273 248 236 245 271 284 286 290
195 210 213 222 239 223 142 155 178 107 108 117 120 115 99 84 90 97 97 106 118 129 136 159 227 191 158 325 293 280 288 15 82 133 222 255 259 261 258 233 246 261 271 279
216 231 232 217 151 106 148 139 89 75 120 111 112 106 111 123 120 109 106 110 123 135 147 161 194 221 228 207 198 263 288 262 221 214 228 240 248 242 235 236 244 252 256 261
229 218 248 260 170 168 175 149 142 144 111 100 109 122 136 140 124 118 114 106 108 112 118 140 182 211 246 238 180 207 253 257 253 244 236 236 243 245 238 224 227 240 253 265
265 215 225 245 213 162 184 183 174 164 160 154 141 130 125 123 114 113 110 96 85 80 79 94 73 14 337 325 322 147 294 295 284 275 258 247 243 237 239 240 234 236 237 229
266 244 227 235 219 209 197 185 176 171 174 168 153 139 128 123 116 108 96 84 72 60 56 69 63 46 0 354 14 21 4 335 316 310 309 303 295 270 244 245 256 241 235 239
Height
1505 1507 1509 1510 1511 1514 1516 1517 1516 1512 1512 1516 1516 1514 1515 1519 1523 1526 1528 1529 1530 1531 1533 1533 1533 1533 1532 1530 1528 1526 1524 1521 1518 1515 1512 1510 1508 1507 1505 1504 1503 1501 1500 1500
1504 1505 1504 1505 1510 1513 1513 1514 1513 1509 1511 1515 1515 1512 1510 1515 1520 1524 1526 1527 1528 1530 1532 1532 1532 1532 1531 1529 1527 1526 1523 1520 1517 1514 1512 1509 1508 1506 1504 1503 1501 1499 1498 1497
1502 1501 1499 1502 1506 1509 1509 1512 1514 1515 1511 1510 1514 1514 1510 1512 1518 1522 1525 1527 1528 1529 1531 1531 1531 1531 1530 1528 1527 1525 1523 1520 1517 1514 1511 1508 1506 1505 1503 1501 1499 1498 1496 1496
1499 1500 1500 1502 1503 1507 1513 1510 1512 1515 1519 1516 1512 1524 1514 1512 1516 1519 1522 1525 1527 1528 1530 1531 1530 1530 1529 1528 1526 1524 1522 1519 1516 1513 1511 1508 1506 1503 1502 1500 1498 1496 1495 1494
1500 1500 1501 1503 1504 1508 1510 1511 1512 1513 1516 1518 1511 1518 1515 1511 1516 1517 1520 1523 1525 1527 1529 1529 1529 1529 1528 1527 1525 1523 1521 1519 1516 1513 1510 1508 1505 1503 1501 1499 1497 1495 1494 1493
1499 1498 1499 1502 1506 1508 1509 1511 1511 1512 1516 1524 1511 1518 1520 1514 1515 1517 1519 1522 1524 1526 1528 1528 1528 1528 1527 1526 1524 1522 1520 1518 1515 1513 1510 1508 1505 1502 1500 1498 1496 1494 1493 1492
1504 1501 1503 1504 1508 1510 1510 1516 1524 1526 1528 1520 1508 1515 1520 1514 1514 1517 1519 1522 1524 1525 1527 1527 1527 1527 1526 1525 1523 1522 1520 1518 1515 1513 1510 1508 1505 1502 1500 1498 1495 1493 1492 1491
1505 1510 1503 1504 1506 1509 1508 1513 1527 1534 1525 1517 1511 1515 1517 1512 1515 1518 1520 1522 1523 1524 1525 1526 1526 1526 1525 1524 1523 1521 1519 1517 1515 1513 1510 1508 1506 1503 1500 1498 1496 1493 1492 1490
1501 1507 1503 1504 1506 1508 1510 1509 1509 1520 1515 1518 1508 1510 1515 1512 1514 1517 1519 1521 1522 1523 1524 1525 1525 1525 1524 1523 1522 1521 1519 1517 1515 1513 1511 1508 1505 1503 1500 1498 1496 1493 1491 1489
1495 1510 1506 1508 1508 1509 1509 1509 1512 1520 1525 1526 1513 1511 1516 1515 1514 1515 1516 1518 1520 1522 1523 1523 1524 1524 1523 1523 1521 1520 1518 1517 1515 1513 1511 1508 1506 1503 1501 1499 1496 1493 1491 1489
1493 1502 1508 1508 1510 1507 1511 1512 1513 1515 1516 1529 1528 1526 1509 1511 1512 1514 1515 1517 1518 1520 1521 1522 1522 1522 1522 1522 1521 1520 1518 1516 1514 1512 1510 1508 1506 1504 1502 1499 1497 1494 1492 1490
1494 1497 1503 1504 1501 1503 1506 1508 1512 1523 1519 1516 1525 1527 1508 1510 1512 1513 1514 1516 1517 1518 1520 1520 1521 1521 1521 1521 1520 1519 1518 1516 1514 1512 1510 1509 1506 1504 1502 1500 1497 1495 1492 1490
1495 1502 1508 1513 1513 1509 1509 1509 1510 1514 1518 1518 1524 1524 1508 1508 1509 1511 1513 1515 1516 1517 1518 1519 1520 1520 1520 1520 1519 1518 1517 1515 1514 1512 1510 1509 1507 1505 1502 1500 1498 1495 1493 1491
1500 1501 1505 1514 1509 1504 1508 1508 1510 1515 1521 1516 1513 1512 1507 1506 1508 1510 1512 1513 1515 1516 1517 1517 1518 1518 1518 1518 1518 1517 1516 1515 1514 1512 1511 1509 1507 1505 1503 1500 1498 1496 1493 1491
1500 1502 1496 1495 1496 1499 1502 1505 1508 1513 1512 1515 1510 1509 1506 1505 1507 1509 1510 1512 1513 1514 1515 1516 1516 1517 1517 1517 1516 1516 1515 1514 1513 1512 1511 1509 1507 1505 1503 1501 1498 1496 1494 1492
1499 1500 1496 1497 1496 1499 1503 1502 1504 1507 1508 1509 1508 1507 1502 1504 1506 1507 1508 1510 1511 1512 1513 1514 1515 1515 1516 1516 1515 1515 1514 1514 1513 1512 1510 1509 1507 1505 1503 1501 1499 1496 1494 1492
1496 1499 1501 1501 1494 1499 1505 1495 1498 1501 1500 1503 1508 1504 1501 1503 1504 1506 1507 1508 1509 1510 1511 1512 1513 1514 1514 1514 1514 1514 1514 1513 1513 1512 1510 1508 1507 1505 1503 1501 1499 1496 1494 1492
1493 1495 1497 1499 1500 1514 1495 1481 1486 1493 1495 1496 1498 1499 1500 1502 1504 1505 1506 1507 1508 1509 1510 1511 1512 1512 1513 1513 1513 1513 1512 1512 1512 1511 1510 1508 1506 1504 1502 1500 1498 1496 1494 1492
1491 1493 1498 1499 1501 1495 1489 1484 1486 1492 1494 1492 1494 1496 1499 1501 1502 1503 1505 1506 1507 1508 1508 1509 1510 1511 1512 1512 1512 1512 1512 1511 1511 1510 1509 1508 1506 1504 1502 1500 1498 1497 1494 1492
1493 1493 1499 1499 1506 1503 1485 1481 1484 1491 1496 1489 1492 1495 1498 1499 1501 1504 1504 1505 1506 1507 1507 1508 1509 1510 1511 1511 1511 1511 1511 1511 1510 1508 1508 1507 1505 1503 1502 1500 1498 1496 1494 1492
1498 1498 1502 1504 1502 1489 1483 1483 1487 1501 1495 1487 1491 1494 1497 1498 1501 1503 1504 1504 1505 1506 1506 1507 1508 1509 1509 1510 1510 1510 1510 1510 1508 1507 1506 1505 1504 1502 1501 1499 1497 1495 1494 1492
1489 1494 1495 1497 1502 1495 1483 1484 1488 1489 1487 1489 1491 1494 1496 1498 1500 1502 1503 1504 1504 1505 1505 1506 1507 1507 1508 1508 1508 1508 1508 1507 1506 1505 1504 1503 1502 1501 1500 1498 1496 1494 1493 1491
1477 1479 1479 1482 1486 1481 1481 1483 1485 1486 1487 1489 1492 1494 1496 1498 1499 1501 1502 1502 1503 1504 1504 1505 1505 1506 1506 1506 1506 1506 1506 1505 1504 1503 1502 1501 1500 1498 1497 1496 1494 1493 1491 1490
1469 1470 1474 1475 1476 1478 1480 1482 1484 1486 1487 1489 1491 1493 1495 1496 1498 1499 1500 1501 1502 1503 1503 1503 1504 1504 1504 1505 1504 1504 1503 1503 1502 1501 1500 1498 1497 1496 1495 1494 1492 1491 1489 1488
1467 1468 1471 1474 1474 1477 1478 1480 1482 1484 1486 1488 1490 1491 1493 1495 1496 1498 1499 1499 1500 1501 1501 1502 1502 1502 1502 1503 1502 1501 1500 1500 1499 1498 1497 1496 1495 1493 1492 1491 1490 1488 1487 1486
1465 1466 1470 1471 1469 1471 1473 1475 1478 1481 1483 1485 1487 1489 1491 1493 1494 1496 1497 1497 1498 1499 1500 1500 1500 1500 1500 1500 1499 1498 1497 1496 1496 1495 1494 1493 1492 1491 1489 1487 1486 1484 1483 1482